Tracking 19484 objects as of 20-Jan-2019
HD Live streaming from Space Station
objects crossing your sky now

ATLAS AGENA R/B(2)

Track ATLAS AGENA R/B(2) now!


NORAD ID: 15422
Int'l Code: 1977-038C
Perigee: 28,988.1 km
Apogee: 41,466.2 km
Inclination: 10.4 °
Period: 1,407.2 minutes
Semi major axis: 41598 km
RCS: Unknown
Launch date: May 23, 1977
Source: United States (US)
Launch site: AIR FORCE EASTERN TEST RANGE (AFETR)

Note: This is a ROCKET BODY
aabbcc
Your satellite tracking list
Your tracking list is empty




NASA's NSSDC Master Catalog

Two Line Element Set (TLE):
1 15422U 77038C   18269.53916497 0.00000000  00000-0  00000-0 0    02
2 15422  10.3966 342.0784 1499835 115.6619 260.5710  1.02327354    05
Source of the keplerian elements: McCants